Date String (YYYY-MM-DD hh:mm:ss) UTC,Instrument flags,Ambient pressure (hPa),Sample flow (lpm),Bypass flow (lpm),Sample temperature (°C),Ambient temperature (°C),ASC tube jacket temperature (°C),LED temperature (°C),Box temperature (°C),Sample RH (%),Span deviation,Mass concentration (μg/m³),Mass concentration (μg/m³),Mass concentration (μg/m³)
DateTimeUTC,F1_M11,P_M11,Q1_M11,Q2_M11,T1_M11,T2_M11,T3_M11,T4_M11,T5_M11,U1_M11,ZSPAN_M11,X0_M11,X2_M11,X1_M11
2021-08-24 16:00:00,,0828.6,5.00,0.00,29.3,26.6,00.0,38.5,30.8,18.2,0000.0,0008.10,0003.64,0003.30
2021-08-24 16:01:00,,0828.9,4.99,0.00,29.3,27.0,00.0,38.4,30.9,17.7,0000.0,0008.55,0003.65,0003.30
2021-08-24 16:02:00,,0829.0,5.01,0.00,29.3,27.4,00.0,38.4,31.0,18.4,0000.0,0008.97,0003.65,0003.29
2021-08-24 16:03:00,,0829.1,4.99,0.00,29.3,27.7,00.0,38.4,31.1,18.7,0000.0,0009.86,0003.63,0003.29
2021-08-24 16:04:00,,0829.0,5.00,0.00,29.4,28.0,00.0,38.4,31.2,19.5,0000.0,0010.25,0003.62,0003.29
2021-08-24 16:05:00,,0829.0,5.01,0.00,29.4,28.2,00.0,38.4,31.3,19.8,0000.0,0010.76,0003.64,0003.28
2021-08-24 16:06:00,,0828.8,5.01,0.00,29.4,28.4,00.0,38.4,31.3,19.7,0000.0,0010.57,0003.65,0003.28
2021-08-24 16:07:00,,0828.7,5.00,0.00,29.5,28.6,00.0,38.5,31.4,19.8,0000.0,0010.48,0003.63,0003.28
2021-08-24 16:08:00,,0829.0,5.00,0.00,29.5,27.5,00.0,38.5,31.1,20.7,0000.0,0010.51,0003.65,0003.28
2021-08-24 16:09:00,,0828.6,5.01,0.00,29.3,26.0,00.0,38.4,30.7,22.0,0000.0,0010.61,0003.66,0003.27
2021-08-24 16:10:00,,0829.1,5.00,0.00,29.3,26.2,00.0,38.4,30.7,21.9,0000.0,0010.79,0003.65,0003.25
2021-08-24 16:11:00,,0828.9,5.00,0.00,29.2,26.6,00.0,38.4,30.9,21.7,0000.0,0010.84,0003.67,0003.26
2021-08-24 16:12:00,,0828.9,5.01,0.00,29.2,27.0,00.0,38.4,30.9,21.6,0000.0,0010.57,0003.66,0003.25
2021-08-24 16:13:00,,0829.1,4.99,0.00,29.2,27.4,00.0,38.4,31.0,21.2,0000.0,0010.18,0003.68,0003.24
2021-08-24 16:14:00,,0829.0,5.00,0.00,29.3,27.7,00.0,38.4,31.1,20.8,0000.0,0009.11,0003.70,0003.23
2021-08-24 16:15:00,,0828.9,5.00,0.00,29.3,28.0,00.0,38.4,31.2,21.3,0000.0,0008.20,0003.70,0003.22
2021-08-24 16:16:00,,0828.7,5.00,0.00,29.4,28.2,00.0,38.4,31.2,20.8,0000.0,0007.61,0003.70,0003.22
2021-08-24 16:17:00,,0829.0,4.99,0.00,29.4,28.4,00.0,38.4,31.3,20.4,0000.0,0007.85,0003.70,0003.22
2021-08-24 16:18:00,,0828.9,5.00,0.00,29.5,28.3,00.0,38.4,31.3,20.8,0000.0,0008.25,0003.71,0003.21
2021-08-24 16:19:00,,0828.6,5.00,0.00,29.4,26.8,00.0,38.4,30.8,21.4,0000.0,0008.50,0003.68,0003.20
2021-08-24 16:20:00,,0828.9,5.01,0.00,29.2,25.8,00.0,38.4,30.6,21.6,0000.0,0008.86,0003.65,0003.19
2021-08-24 16:21:00,,0828.7,4.99,0.00,29.2,26.2,00.0,38.4,30.7,21.1,0000.0,0009.38,0003.65,0003.20
2021-08-24 16:22:00,,0828.8,5.00,0.00,29.2,26.7,00.0,38.3,30.8,20.3,0000.0,0010.12,0003.61,0003.20
2021-08-24 16:23:00,,0829.1,5.00,0.00,29.2,27.1,00.0,38.3,30.9,20.7,0000.0,0010.02,0003.60,0003.21
2021-08-24 16:24:00,,0828.9,4.99,0.00,29.2,27.5,00.0,38.3,31.0,19.9,0000.0,0009.95,0003.59,0003.22
2021-08-24 16:25:00,,0829.1,5.01,0.00,29.2,27.8,00.0,38.3,31.1,21.5,0000.0,0009.89,0003.57,0003.22
2021-08-24 16:26:00,,0828.7,5.00,0.00,29.3,28.1,00.0,38.3,31.2,22.8,0000.0,0009.86,0003.57,0003.23
2021-08-24 16:27:00,,0828.6,4.99,0.00,29.4,28.3,00.0,38.3,31.2,23.0,0000.0,0010.17,0003.59,0003.24
2021-08-24 16:28:00,,0829.2,5.01,0.00,29.4,28.5,00.0,38.4,31.3,23.8,0000.0,0010.05,0003.61,0003.25
2021-08-24 16:29:00,,0828.9,5.00,0.00,29.4,28.1,00.0,38.4,31.2,23.0,0000.0,0010.15,0003.64,0003.26
2021-08-24 16:30:00,,0828.8,5.01,0.00,29.3,26.5,00.0,38.4,30.8,22.4,0000.0,0010.78,0003.66,0003.28
2021-08-24 16:31:00,,0828.8,5.00,0.00,29.2,26.1,00.0,38.3,30.7,22.6,0000.0,0010.55,0003.68,0003.30
2021-08-24 16:32:00,,0828.7,5.01,0.00,29.2,26.6,00.0,38.3,30.8,21.1,0000.0,0010.47,0003.70,0003.31
2021-08-24 16:33:00,,0828.5,4.99,0.00,29.2,27.0,00.0,38.3,30.9,22.6,0000.0,0010.24,0003.74,0003.32
2021-08-24 16:34:00,,0828.5,5.00,0.00,29.2,27.4,00.0,38.3,31.0,22.2,0000.0,0011.58,0003.78,0003.33
2021-08-24 16:35:00,,0828.6,5.00,0.00,29.2,27.7,00.0,38.3,31.0,21.3,0000.0,0012.40,0003.83,0003.34
2021-08-24 16:36:00,,0828.5,5.01,0.00,29.3,28.0,00.0,38.3,31.1,20.4,0000.0,0012.49,0003.84,0003.35
2021-08-24 16:37:00,,0828.5,5.01,0.00,29.3,28.2,00.0,38.3,31.2,22.4,0000.0,0012.55,0003.85,0003.35
2021-08-24 16:38:00,,0828.5,5.00,0.00,29.4,28.4,00.0,38.3,31.3,23.0,0000.0,0012.16,0003.81,0003.35
2021-08-24 16:39:00,,0828.5,5.00,0.00,29.4,28.2,00.0,38.4,31.3,23.3,0000.0,0011.69,0003.78,0003.36
2021-08-24 16:40:00,,0828.5,5.00,0.00,29.4,26.6,00.0,38.3,30.8,22.6,0000.0,0010.86,0003.77,0003.37
2021-08-24 16:41:00,,0828.5,5.01,0.00,29.2,26.1,00.0,38.3,30.6,24.1,0000.0,0010.74,0003.77,0003.38
2021-08-24 16:42:00,,0828.5,4.99,0.00,29.2,26.5,00.0,38.3,30.8,23.6,0000.0,0011.05,0003.80,0003.37
2021-08-24 16:43:00,,0828.5,5.00,0.00,29.2,26.9,00.0,38.3,30.8,22.3,0000.0,0010.56,0003.82,0003.37
2021-08-24 16:44:00,,0828.5,5.00,0.00,29.2,27.3,00.0,38.3,30.9,22.9,0000.0,0009.94,0003.80,0003.38
2021-08-24 16:45:00,,0828.5,5.00,0.00,29.2,27.7,00.0,38.3,31.0,22.4,0000.0,0009.36,0003.77,0003.38
2021-08-24 16:46:00,,0828.5,4.99,0.00,29.3,28.0,00.0,38.3,31.1,21.1,0000.0,0008.62,0003.73,0003.38
2021-08-24 16:47:00,,0828.5,5.00,0.00,29.3,28.2,00.0,38.3,31.2,21.3,0000.0,0008.72,0003.71,0003.39
2021-08-24 16:48:00,,0828.5,5.01,0.00,29.3,27.4,00.0,38.3,31.0,21.2,0000.0,0008.59,0003.70,0003.40
2021-08-24 16:49:00,,0828.5,5.01,0.00,29.2,26.0,00.0,38.3,30.6,21.2,0000.0,0008.73,0003.74,0003.41
2021-08-24 16:50:00,,0828.5,5.00,0.00,29.1,26.2,00.0,38.3,30.6,21.1,0000.0,0008.86,0003.76,0003.40
2021-08-24 16:51:00,,0828.5,5.00,0.00,29.1,26.6,00.0,38.3,30.7,23.2,0000.0,0009.04,0003.77,0003.40
2021-08-24 16:52:00,,0828.5,4.98,0.00,29.1,27.0,00.0,38.2,30.8,21.1,0000.0,0008.53,0003.79,0003.40
2021-08-24 16:53:00,,0828.5,5.00,0.00,29.1,27.4,00.0,38.2,30.9,22.6,0000.0,0008.62,0003.80,0003.41
2021-08-24 16:54:00,,0828.5,5.01,0.00,29.2,27.7,00.0,38.2,31.0,22.5,0001.6,0008.77,0003.81,0003.42
2021-08-24 16:55:00,,0828.5,4.99,0.00,29.2,28.0,00.0,38.2,31.1,21.8,0000.6,0008.88,0003.82,0003.42
2021-08-24 16:56:00,,0828.5,5.00,0.00,29.3,28.0,00.0,38.3,31.1,21.8,0002.5,0008.64,0003.85,0003.43
2021-08-24 16:57:00,,0828.5,5.00,0.00,29.2,26.5,00.0,38.2,30.7,21.2,0002.5,0008.98,0003.88,0003.45
2021-08-24 16:58:00,,0828.4,5.01,0.00,29.1,25.8,00.0,38.2,30.4,21.9,0002.0,0009.14,0003.92,0003.45
2021-08-24 16:59:00,,0828.4,4.99,0.00,29.0,26.3,00.0,38.2,30.5,22.2,0001.9,0009.86,0003.97,0003.46
